Time,TemperatureF,DewpointF,PressureIn,WindDirection,WindDirectionDegrees,WindSpeedMPH,WindSpeedGustMPH,Humidity,HourlyPrecipIn,Conditions,Clouds,dailyrainin,SoftwareType,DateUTC
2013-03-10 00:02:00,19.0,16.0,30.07,North,-999,-999.0,-999.0,86,-99.99,,,-99.99,,2013-03-10 07:02:00,
2013-03-10 00:11:00,20.0,16.0,30.07,North,-999,-999.0,-999.0,84,-99.99,,,-99.99,,2013-03-10 07:11:00,
2013-03-10 00:21:00,20.0,16.0,30.07,North,-999,-999.0,-999.0,84,-99.99,,,-99.99,,2013-03-10 07:21:00,
2013-03-10 00:32:00,20.0,16.0,30.07,North,-999,-999.0,-999.0,84,-99.99,,,-99.99,,2013-03-10 07:32:00,
2013-03-10 00:42:00,19.0,15.0,30.07,North,-999,-999.0,-999.0,84,-99.99,,,-99.99,,2013-03-10 07:42:00,
2013-03-10 00:52:00,19.0,15.0,30.07,North,-999,-999.0,-999.0,84,-99.99,,,-99.99,,2013-03-10 07:52:00,
2013-03-10 01:01:00,19.0,15.0,30.07,North,-999,-999.0,-999.0,84,-99.99,,,-99.99,,2013-03-10 08:01:00,
2013-03-10 01:11:00,18.0,15.0,30.07,North,-999,-999.0,-999.0,86,-99.99,,,-99.99,,2013-03-10 08:11:00,
2013-03-10 01:21:00,18.0,15.0,30.07,North,-999,-999.0,-999.0,86,-99.99,,,-99.99,,2013-03-10 08:21:00,
2013-03-10 01:31:00,18.0,15.0,30.07,North,-999,-999.0,-999.0,86,-99.99,,,-99.99,,2013-03-10 08:31:00,
2013-03-10 01:42:00,18.0,15.0,30.07,North,-999,-999.0,-999.0,86,-99.99,,,-99.99,,2013-03-10 08:42:00,
2013-03-10 01:51:00,18.0,15.0,30.07,North,-999,-999.0,-999.0,86,-99.99,,,-99.99,,2013-03-10 08:51:00,
2013-03-10 03:01:00,18.0,15.0,30.07,North,-999,-999.0,-999.0,86,-99.99,,,-99.99,,2013-03-10 09:01:00,
2013-03-10 03:11:00,18.0,15.0,30.07,North,-999,-999.0,-999.0,86,-99.99,,,-99.99,,2013-03-10 09:11:00,
2013-03-10 03:21:00,18.0,15.0,30.07,North,-999,-999.0,-999.0,86,-99.99,,,-99.99,,2013-03-10 09:21:00,
2013-03-10 03:31:00,18.0,15.0,30.07,North,-999,-999.0,-999.0,86,-99.99,,,-99.99,,2013-03-10 09:31:00,
2013-03-10 03:41:00,18.0,15.0,30.07,North,-999,-999.0,-999.0,86,-99.99,,,-99.99,,2013-03-10 09:41:00,
2013-03-10 03:51:00,18.0,15.0,30.07,North,-999,-999.0,-999.0,86,-99.99,,,-99.99,,2013-03-10 09:51:00,
2013-03-10 04:01:00,18.0,15.0,30.07,North,-999,-999.0,-999.0,86,-99.99,,,-99.99,,2013-03-10 10:01:00,
2013-03-10 04:11:00,18.0,15.0,30.07,North,-999,-999.0,-999.0,87,-99.99,,,-99.99,,2013-03-10 10:11:00,
2013-03-10 04:21:00,18.0,15.0,30.07,North,-999,-999.0,-999.0,87,-99.99,,,-99.99,,2013-03-10 10:21:00,
2013-03-10 04:32:00,18.0,15.0,30.07,North,-999,-999.0,-999.0,87,-99.99,,,-99.99,,2013-03-10 10:32:00,
2013-03-10 04:41:00,18.0,15.0,30.07,North,-999,-999.0,-999.0,88,-99.99,,,-99.99,,2013-03-10 10:41:00,
2013-03-10 04:51:00,18.0,15.0,30.07,North,-999,-999.0,-999.0,88,-99.99,,,-99.99,,2013-03-10 10:51:00,
2013-03-10 05:01:00,18.0,15.0,30.07,North,-999,-999.0,-999.0,88,-99.99,,,-99.99,,2013-03-10 11:01:00,
2013-03-10 05:12:00,18.0,14.0,30.08,North,-999,-999.0,-999.0,83,-99.99,,,-99.99,,2013-03-10 11:12:00,
2013-03-10 05:21:00,18.0,14.0,30.08,North,-999,-999.0,-999.0,83,-99.99,,,-99.99,,2013-03-10 11:21:00,
2013-03-10 05:32:00,18.0,14.0,30.08,North,-999,-999.0,-999.0,83,-99.99,,,-99.99,,2013-03-10 11:32:00,
2013-03-10 05:42:00,18.0,14.0,30.09,North,-999,-999.0,-999.0,82,-99.99,,,-99.99,,2013-03-10 11:42:00,
2013-03-10 05:52:00,18.0,14.0,30.09,North,-999,-999.0,-999.0,82,-99.99,,,-99.99,,2013-03-10 11:52:00,
2013-03-10 06:01:00,18.0,14.0,30.09,North,-999,-999.0,-999.0,82,-99.99,,,-99.99,,2013-03-10 12:01:00,
2013-03-10 06:11:00,17.0,13.0,30.10,North,-999,-999.0,-999.0,84,-99.99,,,-99.99,,2013-03-10 12:11:00,
2013-03-10 06:21:00,17.0,13.0,30.10,North,-999,-999.0,-999.0,84,-99.99,,,-99.99,,2013-03-10 12:21:00,
2013-03-10 06:31:00,17.0,13.0,30.10,North,-999,-999.0,-999.0,84,-99.99,,,-99.99,,2013-03-10 12:31:00,
2013-03-10 06:42:00,17.0,13.0,30.10,North,-999,-999.0,-999.0,84,-99.99,,,-99.99,,2013-03-10 12:42:00,
2013-03-10 06:51:00,17.0,12.0,30.11,North,-999,-999.0,-999.0,81,-99.99,,,-99.99,,2013-03-10 12:51:00,
2013-03-10 07:01:00,17.0,12.0,30.11,North,-999,-999.0,-999.0,81,-99.99,,,-99.99,,2013-03-10 13:01:00,
2013-03-10 07:11:00,16.0,10.0,30.12,North,-999,-999.0,-999.0,78,-99.99,,,-99.99,,2013-03-10 13:11:00,
2013-03-10 07:21:00,16.0,10.0,30.12,North,-999,-999.0,-999.0,78,-99.99,,,-99.99,,2013-03-10 13:21:00,
2013-03-10 07:31:00,16.0,10.0,30.12,North,-999,-999.0,-999.0,78,-99.99,,,-99.99,,2013-03-10 13:31:00,
2013-03-10 07:41:00,16.0,10.0,30.12,North,-999,-999.0,-999.0,78,-99.99,,,-99.99,,2013-03-10 13:41:00,
2013-03-10 07:52:00,16.0,10.0,30.12,North,-999,-999.0,-999.0,78,-99.99,,,-99.99,,2013-03-10 13:52:00,
2013-03-10 08:01:00,16.0,10.0,30.12,North,-999,-999.0,-999.0,78,-99.99,,,-99.99,,2013-03-10 14:01:00,
2013-03-10 08:11:00,16.0,10.0,30.12,North,-999,-999.0,-999.0,78,-99.99,,,-99.99,,2013-03-10 14:11:00,
2013-03-10 08:21:00,14.0,9.0,30.13,North,-999,-999.0,-999.0,78,-99.99,,,-99.99,,2013-03-10 14:21:00,
2013-03-10 08:32:00,14.0,9.0,30.13,North,-999,-999.0,-999.0,78,-99.99,,,-99.99,,2013-03-10 14:32:00,
2013-03-10 08:41:00,14.0,9.0,30.13,North,-999,-999.0,-999.0,78,-99.99,,,-99.99,,2013-03-10 14:41:00,
2013-03-10 08:51:00,20.0,11.0,30.14,North,-999,-999.0,-999.0,68,-99.99,,,-99.99,,2013-03-10 14:51:00,
2013-03-10 09:01:00,20.0,11.0,30.14,North,-999,-999.0,-999.0,68,-99.99,,,-99.99,,2013-03-10 15:01:00,
2013-03-10 09:11:00,22.0,12.0,30.14,North,-999,-999.0,-999.0,64,-99.99,,,-99.99,,2013-03-10 15:11:00,
2013-03-10 09:21:00,22.0,12.0,30.14,North,-999,-999.0,-999.0,64,-99.99,,,-99.99,,2013-03-10 15:21:00,
2013-03-10 09:32:00,22.0,12.0,30.14,North,-999,-999.0,-999.0,64,-99.99,,,-99.99,,2013-03-10 15:32:00,
2013-03-10 09:42:00,22.0,12.0,30.14,North,-999,-999.0,-999.0,64,-99.99,,,-99.99,,2013-03-10 15:42:00,
2013-03-10 09:51:00,24.0,11.0,30.14,North,-999,-999.0,-999.0,58,-99.99,,,-99.99,,2013-03-10 15:51:00,
2013-03-10 10:01:00,24.0,11.0,30.14,North,-999,-999.0,-999.0,58,-99.99,,,-99.99,,2013-03-10 16:01:00,
2013-03-10 10:12:00,26.0,12.0,30.14,North,-999,-999.0,-999.0,55,-99.99,,,-99.99,,2013-03-10 16:12:00,
2013-03-10 10:21:00,26.0,12.0,30.14,North,-999,-999.0,-999.0,55,-99.99,,,-99.99,,2013-03-10 16:21:00,
2013-03-10 10:32:00,26.0,12.0,30.14,North,-999,-999.0,-999.0,55,-99.99,,,-99.99,,2013-03-10 16:32:00,
2013-03-10 10:41:00,26.0,11.0,30.14,North,-999,-999.0,-999.0,53,-99.99,,,-99.99,,2013-03-10 16:41:00,
2013-03-10 10:51:00,26.0,11.0,30.14,North,-999,-999.0,-999.0,53,-99.99,,,-99.99,,2013-03-10 16:51:00,
2013-03-10 11:01:00,26.0,11.0,30.14,North,-999,-999.0,-999.0,53,-99.99,,,-99.99,,2013-03-10 17:01:00,
2013-03-10 11:11:00,27.0,12.0,30.14,North,-999,-999.0,-999.0,52,-99.99,,,-99.99,,2013-03-10 17:11:00,
2013-03-10 11:21:00,27.0,12.0,30.14,North,-999,-999.0,-999.0,52,-99.99,,,-99.99,,2013-03-10 17:21:00,
2013-03-10 11:31:00,27.0,12.0,30.14,North,-999,-999.0,-999.0,52,-99.99,,,-99.99,,2013-03-10 17:31:00,
2013-03-10 11:41:00,28.0,10.0,30.14,North,-999,-999.0,-999.0,46,-99.99,,,-99.99,,2013-03-10 17:41:00,
2013-03-10 11:51:00,28.0,10.0,30.14,North,-999,-999.0,-999.0,46,-99.99,,,-99.99,,2013-03-10 17:51:00,
2013-03-10 12:01:00,28.0,10.0,30.14,North,-999,-999.0,-999.0,46,-99.99,,,-99.99,,2013-03-10 18:01:00,
2013-03-10 12:11:00,30.0,12.0,30.12,North,-999,-999.0,-999.0,47,-99.99,,,-99.99,,2013-03-10 18:11:00,
2013-03-10 12:21:00,30.0,12.0,30.12,North,-999,-999.0,-999.0,47,-99.99,,,-99.99,,2013-03-10 18:21:00,
2013-03-10 12:32:00,30.0,12.0,30.12,North,-999,-999.0,-999.0,47,-99.99,,,-99.99,,2013-03-10 18:32:00,
2013-03-10 12:42:00,30.0,12.0,30.11,North,-999,-999.0,-999.0,48,-99.99,,,-99.99,,2013-03-10 18:42:00,
2013-03-10 12:52:00,30.0,12.0,30.11,North,-999,-999.0,-999.0,48,-99.99,,,-99.99,,2013-03-10 18:52:00,
2013-03-10 13:01:00,30.0,12.0,30.11,North,-999,-999.0,-999.0,48,-99.99,,,-99.99,,2013-03-10 19:01:00,
2013-03-10 13:11:00,29.0,13.0,30.12,North,-999,-999.0,-999.0,49,-99.99,,,-99.99,,2013-03-10 19:11:00,
2013-03-10 13:21:00,29.0,13.0,30.12,North,-999,-999.0,-999.0,49,-99.99,,,-99.99,,2013-03-10 19:21:00,
2013-03-10 13:32:00,29.0,13.0,30.12,North,-999,-999.0,-999.0,49,-99.99,,,-99.99,,2013-03-10 19:32:00,
2013-03-10 13:42:00,30.0,14.0,30.11,North,-999,-999.0,-999.0,51,-99.99,,,-99.99,,2013-03-10 19:42:00,
2013-03-10 13:52:00,30.0,14.0,30.11,North,-999,-999.0,-999.0,51,-99.99,,,-99.99,,2013-03-10 19:52:00,
2013-03-10 14:02:00,30.0,14.0,30.11,North,-999,-999.0,-999.0,51,-99.99,,,-99.99,,2013-03-10 20:02:00,
2013-03-10 14:12:00,29.0,12.0,30.11,North,-999,-999.0,-999.0,49,-99.99,,,-99.99,,2013-03-10 20:12:00,
2013-03-10 14:22:00,29.0,12.0,30.11,North,-999,-999.0,-999.0,49,-99.99,,,-99.99,,2013-03-10 20:22:00,
2013-03-10 14:32:00,29.0,12.0,30.11,North,-999,-999.0,-999.0,49,-99.99,,,-99.99,,2013-03-10 20:32:00,
2013-03-10 14:42:00,29.0,12.0,30.11,North,-999,-999.0,-999.0,49,-99.99,,,-99.99,,2013-03-10 20:42:00,
2013-03-10 14:52:00,30.0,15.0,30.09,North,-999,-999.0,-999.0,52,-99.99,,,-99.99,,2013-03-10 20:52:00,
2013-03-10 15:02:00,30.0,15.0,30.09,North,-999,-999.0,-999.0,52,-99.99,,,-99.99,,2013-03-10 21:02:00,
2013-03-10 15:12:00,33.0,15.0,30.09,North,-999,-999.0,-999.0,46,-99.99,,,-99.99,,2013-03-10 21:12:00,
2013-03-10 15:22:00,33.0,15.0,30.09,North,-999,-999.0,-999.0,46,-99.99,,,-99.99,,2013-03-10 21:22:00,
2013-03-10 15:32:00,33.0,15.0,30.09,North,-999,-999.0,-999.0,46,-99.99,,,-99.99,,2013-03-10 21:32:00,
2013-03-10 15:42:00,33.0,15.0,30.09,North,-999,-999.0,-999.0,46,-99.99,,,-99.99,,2013-03-10 21:42:00,
2013-03-10 15:52:00,35.0,16.0,30.10,North,-999,-999.0,-999.0,45,-99.99,,,-99.99,,2013-03-10 21:52:00,
2013-03-10 16:02:00,35.0,16.0,30.10,North,-999,-999.0,-999.0,45,-99.99,,,-99.99,,2013-03-10 22:02:00,
2013-03-10 16:12:00,35.0,16.0,30.09,North,-999,-999.0,-999.0,45,-99.99,,,-99.99,,2013-03-10 22:12:00,
2013-03-10 16:22:00,35.0,16.0,30.09,North,-999,-999.0,-999.0,45,-99.99,,,-99.99,,2013-03-10 22:22:00,
2013-03-10 16:32:00,35.0,16.0,30.09,North,-999,-999.0,-999.0,45,-99.99,,,-99.99,,2013-03-10 22:32:00,
2013-03-10 16:43:00,36.0,17.0,30.08,North,-999,-999.0,-999.0,45,-99.99,,,-99.99,,2013-03-10 22:43:00,
2013-03-10 16:52:00,36.0,17.0,30.08,North,-999,-999.0,-999.0,45,-99.99,,,-99.99,,2013-03-10 22:52:00,
2013-03-10 17:03:00,36.0,17.0,30.08,North,-999,-999.0,-999.0,45,-99.99,,,-99.99,,2013-03-10 23:03:00,
2013-03-10 17:12:00,37.0,18.0,30.09,North,-999,-999.0,-999.0,45,-99.99,,,-99.99,,2013-03-10 23:12:00,
2013-03-10 17:22:00,37.0,18.0,30.09,North,-999,-999.0,-999.0,45,-99.99,,,-99.99,,2013-03-10 23:22:00,
2013-03-10 17:32:00,37.0,18.0,30.09,North,-999,-999.0,-999.0,45,-99.99,,,-99.99,,2013-03-10 23:32:00,
2013-03-10 17:42:00,37.0,15.0,30.08,North,-999,-999.0,-999.0,41,-99.99,,,-99.99,,2013-03-10 23:42:00,
2013-03-10 17:52:00,37.0,15.0,30.08,North,-999,-999.0,-999.0,41,-99.99,,,-99.99,,2013-03-10 23:52:00,
2013-03-10 18:02:00,37.0,15.0,30.08,North,-999,-999.0,-999.0,41,-99.99,,,-99.99,,2013-03-11 00:02:00,
2013-03-10 18:12:00,37.0,15.0,30.08,North,-999,-999.0,-999.0,41,-99.99,,,-99.99,,2013-03-11 00:12:00,
2013-03-10 18:22:00,37.0,15.0,30.08,North,-999,-999.0,-999.0,41,-99.99,,,-99.99,,2013-03-11 00:22:00,
2013-03-10 18:43:00,35.0,16.0,30.08,North,-999,-999.0,-999.0,45,-99.99,,,-99.99,,2013-03-11 00:43:00,
2013-03-10 18:53:00,35.0,16.0,30.08,North,-999,-999.0,-999.0,45,-99.99,,,-99.99,,2013-03-11 00:53:00,
2013-03-10 19:03:00,35.0,16.0,30.08,North,-999,-999.0,-999.0,45,-99.99,,,-99.99,,2013-03-11 01:03:00,
2013-03-10 19:13:00,32.0,17.0,30.09,North,-999,-999.0,-999.0,53,-99.99,,,-99.99,,2013-03-11 01:13:00,
2013-03-10 19:22:00,32.0,17.0,30.09,North,-999,-999.0,-999.0,53,-99.99,,,-99.99,,2013-03-11 01:22:00,
2013-03-10 19:32:00,32.0,17.0,30.09,North,-999,-999.0,-999.0,53,-99.99,,,-99.99,,2013-03-11 01:32:00,
2013-03-10 19:42:00,32.0,16.0,30.08,North,-999,-999.0,-999.0,52,-99.99,,,-99.99,,2013-03-11 01:42:00,
2013-03-10 19:52:00,32.0,16.0,30.08,North,-999,-999.0,-999.0,52,-99.99,,,-99.99,,2013-03-11 01:52:00,
2013-03-10 20:02:00,32.0,16.0,30.08,North,-999,-999.0,-999.0,52,-99.99,,,-99.99,,2013-03-11 02:02:00,
2013-03-10 20:12:00,31.0,15.0,30.08,North,-999,-999.0,-999.0,52,-99.99,,,-99.99,,2013-03-11 02:12:00,
2013-03-10 20:22:00,31.0,15.0,30.08,North,-999,-999.0,-999.0,52,-99.99,,,-99.99,,2013-03-11 02:22:00,
2013-03-10 20:32:00,31.0,15.0,30.08,North,-999,-999.0,-999.0,52,-99.99,,,-99.99,,2013-03-11 02:32:00,
2013-03-10 20:42:00,31.0,15.0,30.08,North,-999,-999.0,-999.0,52,-99.99,,,-99.99,,2013-03-11 02:42:00,
2013-03-10 20:52:00,27.0,16.0,30.08,North,-999,-999.0,-999.0,60,-99.99,,,-99.99,,2013-03-11 02:52:00,
2013-03-10 21:02:00,27.0,16.0,30.08,North,-999,-999.0,-999.0,60,-99.99,,,-99.99,,2013-03-11 03:02:00,
2013-03-10 21:12:00,29.0,14.0,30.08,North,-999,-999.0,-999.0,52,-99.99,,,-99.99,,2013-03-11 03:12:00,
2013-03-10 21:22:00,29.0,14.0,30.08,North,-999,-999.0,-999.0,52,-99.99,,,-99.99,,2013-03-11 03:22:00,
2013-03-10 21:32:00,29.0,14.0,30.08,North,-999,-999.0,-999.0,52,-99.99,,,-99.99,,2013-03-11 03:32:00,
2013-03-10 21:42:00,27.0,14.0,30.08,North,-999,-999.0,-999.0,59,-99.99,,,-99.99,,2013-03-11 03:42:00,
2013-03-10 21:52:00,27.0,14.0,30.08,North,-999,-999.0,-999.0,59,-99.99,,,-99.99,,2013-03-11 03:52:00,
2013-03-10 22:02:00,27.0,14.0,30.08,North,-999,-999.0,-999.0,59,-99.99,,,-99.99,,2013-03-11 04:02:00,
2013-03-10 22:12:00,27.0,14.0,30.08,North,-999,-999.0,-999.0,59,-99.99,,,-99.99,,2013-03-11 04:12:00,
2013-03-10 22:22:00,26.0,14.0,30.08,North,-999,-999.0,-999.0,61,-99.99,,,-99.99,,2013-03-11 04:22:00,
2013-03-10 22:33:00,26.0,14.0,30.08,North,-999,-999.0,-999.0,61,-99.99,,,-99.99,,2013-03-11 04:33:00,
2013-03-10 22:43:00,26.0,14.0,30.08,North,-999,-999.0,-999.0,61,-99.99,,,-99.99,,2013-03-11 04:43:00,
2013-03-10 22:53:00,27.0,15.0,30.07,North,-999,-999.0,-999.0,58,-99.99,,,-99.99,,2013-03-11 04:53:00,
2013-03-10 23:03:00,27.0,15.0,30.07,North,-999,-999.0,-999.0,58,-99.99,,,-99.99,,2013-03-11 05:03:00,
2013-03-10 23:12:00,26.0,14.0,30.07,North,-999,-999.0,-999.0,59,-99.99,,,-99.99,,2013-03-11 05:12:00,
2013-03-10 23:22:00,26.0,14.0,30.07,North,-999,-999.0,-999.0,59,-99.99,,,-99.99,,2013-03-11 05:22:00,
2013-03-10 23:32:00,26.0,14.0,30.07,North,-999,-999.0,-999.0,59,-99.99,,,-99.99,,2013-03-11 05:32:00,
2013-03-10 23:42:00,26.0,15.0,30.06,North,-999,-999.0,-999.0,62,-99.99,,,-99.99,,2013-03-11 05:42:00,
2013-03-10 23:52:00,26.0,15.0,30.06,North,-999,-999.0,-999.0,62,-99.99,,,-99.99,,2013-03-11 05:52:00,